Regional Weather Roundup
Issued by NWS Upton, NY

Current Version | Previous Version | Text Only | Print | Product List | Glossary Off
Versions: 1 2 3 4 5 6 7 8 9 10 11 12 13 14 15 16 17 18 19 20 21 22 23 24 25 26 27 28 29 30 31 32 33 34 35 36 37 38 39 40 41 42 43 44 45 46 47 48 49 50
000 ASUS41 KOKX 271908 RWROKX REGIONAL WEATHER ROUNDUP NATIONAL WEATHER SERVICE NEW YORK NY 300 PM EDT TUE SEP 27 2016 NOTE: "FAIR" INDICATES FEW OR NO CLOUDS BELOW 12,000 FEET WITH NO SIGNIFICANT WEATHER AND/OR OBSTRUCTIONS TO VISIBILITY. NYZ071-072-176-178-NJZ106-104-272000- NEW YORK CITY METRO AREA CITY SKY/WX TMP DP RH WIND PRES REMARKS Central Park CLOUDY 74 55 51 VRB3 29.92F LaGuardia APRT PTSUNNY 75 55 49 N5 29.88F Kennedy INTL CLOUDY 74 53 48 SW8 29.90F Newark/Liberty PTSUNNY 75 52 44 W7 29.89F Bronx Bot Gard N/A 75 52 43 SW15 29.89F Wall St Helipt CLOUDY N/A N/A N/A SW6 29.90F Teterboro MOSUNNY 76 50 40 CALM 29.88F $$ NYZ177-179-078>081-272000- LONG ISLAND NEW YORK CITY SKY/WX TMP DP RH WIND PRES REMARKS Farmingdale PTSUNNY 72 61 68 S6 29.89F MacArthur/ISP PTSUNNY 72 61 68 CALM 29.89F Shirley CLOUDY 71 63 75 CALM 29.90F Riverhead NOT AVBL Westhampton CLOUDY 70 61 73 CALM 29.91F Southampton N/A 72 63 73 CALM 29.86 Bridgehampton N/A 72 64 78 CALM 29.76 East Hampton FAIR 69 62 78 CALM 29.90S Montauk N/A 69 61 75 CALM 29.91S $$ NYZ052-065-067-272000- HUDSON VALLEY CITY SKY/WX TMP DP RH WIND PRES REMARKS White Plains MOSUNNY 72 56 57 SE5 29.89F Newburgh MOSUNNY 72 52 49 SW7 29.91F Montgomery MOSUNNY 73 51 46 SW7 29.89S Poughkeepsie PTSUNNY 71 54 54 VRB3 29.89S Albany MOSUNNY 71 50 47 E7 29.88F $$ NJZ001-105-106-008-010-013-015-019>022-104-272000- NEW JERSEY CITY SKY/WX TMP DP RH WIND PRES REMARKS Newark/Liberty PTSUNNY 75 52 44 W7 29.89F Teterboro MOSUNNY 76 50 40 CALM 29.88F Caldwell SUNNY 72 53 51 CALM 29.90F Morristown PTSUNNY 72 55 56 SW9 29.91S Somerville SUNNY 73 54 51 VRB5 29.89F Linden NOT AVBL Sussex SUNNY 71 52 50 SW6 29.90S Abdover N/A 71 49 45 S6 29.91F Trenton MOSUNNY 73 49 42 SW12 29.90F Millville CLOUDY 69 63 81 VRB3 29.93F Atlantic City CLOUDY 68 60 75 SW6 29.92F Wrightstown PTSUNNY 74 58 55 W9 29.88F Toms River CLOUDY 73 60 63 SW5 29.92F Belmar MOSUNNY 73 60 63 SW7 29.91F $$ PAZ047>061-062-071-272000- EASTERN PENNSYLVANIA CITY SKY/WX TMP DP RH WIND PRES REMARKS Philadelphia PTSUNNY 73 53 49 SW8 29.91F Allentown SUNNY 74 46 36 VRB3 29.90F Scranton SUNNY 71 47 42 W9G17 29.89F $$ CTZ002-004>006-009-010-012-RIZ004-006-007-MAZ004-011-015-272000- SOUTHERN NEW ENGLAND IN CT CITY SKY/WX TMP DP RH WIND PRES REMARKS Bradley INTL CLOUDY 73 54 51 W5 29.90R Hartford CLOUDY 71 59 65 S5 29.89S Danbury MOSUNNY 71 53 52 VRB5 29.91S Wtrbury/Oxford MOSUNNY 70 54 56 VRB3 29.93F Bridgeport MOSUNNY 72 60 66 S8 29.90S Meriden CLOUDY 73 55 53 CALM 29.89S New Haven PTSUNNY 70 60 70 S8 29.90S Chester FAIR 72 61 68 S7 29.90S Groton CLOUDY 71 63 75 SW8 29.90R Wilimantic PTSUNNY 73 59 61 VRB3 29.90S IN RI CITY SKY/WX TMP DP RH WIND PRES REMARKS Providence PTSUNNY 71 60 68 CALM 29.89F Block Island CLOUDY 68 62 81 S5 29.91S Westerly CLOUDY 71 60 68 S6 29.91R IN MA CITY SKY/WX TMP DP RH WIND PRES REMARKS Boston CLOUDY 68 61 78 SE8 29.89S Worcester CLOUDY 69 55 60 CALM 29.91S Westfield CLOUDY 71 52 50 S5 29.89S Provincetown CLOUDY 66 62 87 NW5 29.90S Nantucket CLOUDY N/A N/A N/A SW9 29.91F $$ ANZ330-335-338-340-345-350-353-355-272000- COASTAL MARINE OBSERVATIONS STATION/POSITION TIME SKY/WX TEMP WIND PRES VSBY WAVE AIR SEA DIR/SP/G HT/PER (UTC) (F) (DEG/KT/KT) (MB) (MI) (FT/S) NY HARB ENTRANCE 1850 69 71 250/ 4/ 6 1012.8 3/ 6 20S FIRE ISLAND 1850 68 70 240/ 6/ 8 1012.8 5/ 6 GREAT SOUTH BAY 1830 70 70 250/ 2/ 2 N/A 23 SSW MONTAUK P 1850 67 68 240/ 2/ 4 1012.8 4/ 6 15 E BARNEGAT LI 1830 71 N/A 5/ 6 HUDSON CANYON 1750 68 69 1013.5 7/ 8 KINGS POINT 1836 74 73 1012.0 EXECUTION ROCKS 1845 72 CALM / 2 N/A CENTRAL LI SOUND NOT AVBL EASTERN LI SOUND NOT AVBL ROBBINS REEF 1842 71 160/ 2/ 4 1012.4 $$ >>>>>>>>>>>>>>>>>>>>>>>>>>>> KEY <<<<<<<<<<<<<<<<<<<<<<<<<<< > < > SKY/WX - Sky Condition/Present Weather < > TMP - Temperature in Fahrenheit < > DP - Dew Point in Fahrenheit < > RH - Relative Humidity in Percent < > WIND - Direction (from) and Speed in MPH < > PRES - Mean Sea Level Pressure (inches of Hg) < > WCI - Wind Chill Index < > VSB - VISIBILITY IN MILES < > HX - HEAT INDEX < > TC - TEMPERATURE IN CELSIUS < > VRB - VARIABLE WIND DIRECTION < > < >>>>>>>>>>>>>>>>>>>>>>>>>>>> KEY <<<<<<<<<<<<<<<<<<<<<<<<<<<

USA.gov is the U.S. government's official web portal to all federal, state and local government web resources and services.